Weather History for Bradford, PA

Change the Weather History Date:

Tuesday, July 31, 2012

  Actual Average Record
Temperature  
Mean Temperature 69 °F 65 °F  
Max Temperature 79 °F 77 °F 92 °F (1975)
Min Temperature 60 °F 53 °F 41 °F (1964)
Degree Days  
Heating Degree Days 0 0  
Month to date heating degree days 1  
Since 1 June heating degree days 209  
Since 1 July heating degree days 64  
Cooling Degree Days 4 2  
Month to date cooling degree days 74  
Year to date cooling degree days 124  
Since 1 June cooling degree days 114  
Growing Degree Days 19 (Base 50)    
Moisture  
Dew Point 62 °F    
Average Humidity 85    
Maximum Humidity 94    
Minimum Humidity 62    
Precipitation  
Precipitation 1.96 in 0.14 in 2.93 in (2012)
Month to date precipitation 4.19  
Year to date precipitation 25.84  
Sea Level Pressure  
Sea Level Pressure 29.96 in    
Wind  
Wind Speed 6 mph (SSE)    
Max Wind Speed 20 mph    
Max Gust Speed 36 mph    
Visibility 4 miles    
Events Fog , Rain    
T = Trace of Precipitation, MM = Missing Value Source: NWS Daily Summary

Daily Weather History Graph

Daily Weather History Graph

Search for Another Location

Airport:

Trip Planner

Search our weather history database for the weather conditions in past years. The results will help you decide how hot, cold, wet, or windy it might be!

Date:

Astronomy

Jul. 31, 2012 Rise Set
Actual Time 6:07 AM EDT 8:33 PM EDT
Civil Twilight 5:36 AM EDT 9:04 PM EDT
Nautical Twilight 4:57 AM EDT 9:43 PM EDT
Astronomical Twilight 4:13 AM EDT 10:26 PM EDT
Moon 7:20 PM EDT (7/31) 4:26 AM EDT (7/31)
Length of Visible Light 15h 28m
Length of Day
14h 25m
Waxing Gibbous, 97% of the Moon is Illuminated
Jul 31
Waxing Gibbous
Aug 1
Full
Aug 9
Last Quarter
Aug 17
New
Aug 24
First Quarter

Hourly Weather History & Observations

Time (EDT) Temp. Dew Point Humidity Pressure Visibility Wind Dir Wind Speed Gust Speed Precip Events Conditions
12:53 AM 62.1 °F 57.9 °F 86% 30.02 in 9.0 mi ESE 4.6 mph - N/A   Clear
1:53 AM 62.1 °F 57.9 °F 86% 30.01 in 8.0 mi SE 4.6 mph - N/A   Clear
2:53 AM 64.9 °F 61.0 °F 87% 29.99 in 8.0 mi SE 5.8 mph - N/A   Clear
3:53 AM 64.0 °F 61.0 °F 90% 30.00 in 5.0 mi ESE 4.6 mph - N/A   Mostly Cloudy
4:53 AM 64.9 °F 62.1 °F 90% 29.99 in 6.0 mi SE 3.5 mph - N/A   Mostly Cloudy
5:53 AM 64.9 °F 62.1 °F 90% 29.98 in 5.0 mi SE 5.8 mph - N/A   Scattered Clouds
6:53 AM 66.0 °F 63.0 °F 90% 29.99 in 4.0 mi SE 4.6 mph - N/A   Mostly Cloudy
7:11 AM 66.0 °F 63.0 °F 90% 30.02 in 4.0 mi SE 5.8 mph - N/A   Scattered Clouds
7:24 AM 66.9 °F 63.0 °F 87% 30.03 in 4.0 mi SE 6.9 mph - N/A   Mostly Cloudy
7:53 AM 66.9 °F 64.0 °F 90% 29.98 in 4.0 mi SE 9.2 mph - N/A   Overcast
8:48 AM 69.8 °F 64.4 °F 83% 30.01 in 6.0 mi South 8.1 mph - N/A   Haze
8:53 AM 70.0 °F 64.0 °F 81% 29.97 in 6.0 mi South 8.1 mph - N/A   Haze
9:41 AM 73.0 °F 63.0 °F 71% 30.01 in 9.0 mi South 11.5 mph - N/A   Mostly Cloudy
9:53 AM 73.9 °F 64.0 °F 71% 29.97 in 9.0 mi SSE 8.1 mph - N/A   Mostly Cloudy
10:28 AM 75.0 °F 63.0 °F 66% 30.01 in 10.0 mi SSW 9.2 mph 18.4 mph N/A   Mostly Cloudy
10:53 AM 73.9 °F 63.0 °F 68% 29.97 in 10.0 mi SSW 9.2 mph - N/A   Overcast
11:53 AM 75.0 °F 64.0 °F 69% 29.95 in 9.0 mi South 6.9 mph - N/A   Overcast
12:53 PM 77.0 °F 64.0 °F 64% 29.92 in 10.0 mi Calm Calm - N/A   Overcast
1:25 PM 78.1 °F 64.0 °F 62% 29.96 in 10.0 mi South 6.9 mph - N/A   Mostly Cloudy
1:39 PM 75.9 °F 64.0 °F 67% 29.96 in 8.0 mi South 5.8 mph - N/A   Mostly Cloudy
1:45 PM 73.0 °F 64.0 °F 73% 29.97 in 1.5 mi South 10.4 mph 20.7 mph 0.14 in Rain Heavy Rain
1:53 PM 70.0 °F 64.0 °F 81% 29.94 in 0.8 mi South 11.5 mph 19.6 mph 0.29 in Rain Heavy Rain
2:06 PM 66.9 °F 62.1 °F 84% 29.99 in 0.2 mi South 19.6 mph 35.7 mph 0.69 in Rain Heavy Rain
2:19 PM 66.0 °F 62.1 °F 87% 29.96 in 1.0 mi SSE 6.9 mph - 0.94 in Rain Heavy Rain
2:28 PM 66.9 °F 63.0 °F 87% 29.96 in 2.0 mi SE 4.6 mph - 0.97 in Rain Light Rain
2:37 PM 68.0 °F 64.0 °F 87% 29.96 in 6.0 mi SE 6.9 mph - 0.97 in Rain Light Rain
2:53 PM 69.8 °F 64.4 °F 83% 29.95 in 6.0 mi SSE 5.8 mph - N/A Rain Light Rain
3:22 PM 69.1 °F 64.9 °F 87% 29.95 in 1.5 mi Variable 3.5 mph - 0.07 in Rain Rain
3:34 PM 71.1 °F 66.0 °F 84% 29.94 in 3.0 mi SE 6.9 mph - 0.13 in Rain Light Rain
3:53 PM 73.0 °F 68.0 °F 84% 29.88 in 7.0 mi SE 9.2 mph - 0.13 in   Partly Cloudy
4:22 PM 71.1 °F 66.0 °F 84% 29.92 in 1.5 mi South 8.1 mph 19.6 mph 0.10 in Rain Heavy Rain
4:37 PM 71.1 °F 64.0 °F 78% 29.93 in 3.0 mi SSW 6.9 mph - 0.21 in Rain Light Rain
4:46 PM 70.0 °F 64.9 °F 84% 29.96 in 1.8 mi West 8.1 mph - 0.27 in Rain Heavy Rain
4:53 PM 69.1 °F 64.0 °F 84% 29.92 in 0.8 mi NW 11.5 mph - 0.38 in Rain Heavy Rain
5:26 PM 66.9 °F 63.0 °F 87% 29.94 in 1.0 mi South 8.1 mph - 0.57 in Rain Heavy Rain
5:33 PM 66.0 °F 62.1 °F 87% 29.94 in 0.8 mi South 10.4 mph - 0.62 in Rain Rain
5:36 PM 66.0 °F 62.1 °F 87% 29.96 in 1.0 mi SSW 8.1 mph - 0.64 in Rain Heavy Rain
5:48 PM 66.2 °F 62.6 °F 88% 29.93 in 0.8 mi SE 4.6 mph - 0.80 in Rain Heavy Rain
5:53 PM 66.0 °F 62.1 °F 87% 29.90 in 2.0 mi SE 8.1 mph - 0.80 in Rain Rain
6:00 PM 66.0 °F 61.0 °F 84% 29.96 in 6.0 mi North 8.1 mph - 0.01 in Rain Light Rain
6:06 PM 66.0 °F 62.1 °F 87% 29.96 in 1.5 mi NNE 10.4 mph - 0.11 in Rain Heavy Rain
6:18 PM 66.0 °F 63.0 °F 90% 29.96 in 3.0 mi East 9.2 mph - 0.14 in Rain Light Rain
6:36 PM 66.0 °F 62.1 °F 87% 29.94 in 1.8 mi ESE 10.4 mph - 0.26 in Rain Heavy Rain
6:47 PM 66.2 °F 62.6 °F 88% 29.94 in 3.0 mi SE 6.9 mph - 0.28 in Rain Light Rain
6:53 PM 64.9 °F 62.1 °F 90% 29.91 in 5.0 mi SE 8.1 mph - 0.28 in Rain Light Rain
7:16 PM 64.9 °F 61.0 °F 87% 29.96 in 1.8 mi Calm Calm - 0.04 in Rain Heavy Rain
7:30 PM 64.9 °F 62.1 °F 90% 29.96 in 3.0 mi Calm Calm - 0.08 in Rain Light Rain
7:53 PM 64.9 °F 62.1 °F 90% 29.91 in 5.0 mi SE 5.8 mph - 0.08 in Rain Light Rain
8:12 PM 64.9 °F 62.1 °F 90% 29.94 in 4.0 mi SE 4.6 mph - 0.00 in   Mostly Cloudy
8:53 PM 64.0 °F 60.1 °F 87% 29.89 in 9.0 mi Calm Calm - 0.00 in   Clear
9:51 PM 62.6 °F 60.8 °F 94% 29.95 in 2.0 mi SE 3.5 mph - N/A   Scattered Clouds
9:53 PM 62.1 °F 60.1 °F 93% 29.91 in 2.0 mi SE 3.5 mph - N/A   Scattered Clouds
10:05 PM 62.1 °F 60.1 °F 93% 29.96 in 4.0 mi Calm Calm - N/A   Scattered Clouds
10:39 PM 62.1 °F 59.0 °F 90% 29.95 in 1.8 mi ESE 3.5 mph - N/A   Scattered Clouds
10:53 PM 62.1 °F 59.0 °F 90% 29.91 in 1.8 mi SE 3.5 mph - N/A   Partly Cloudy
11:08 PM 61.0 °F 59.0 °F 93% 29.95 in 0.5 mi Calm Calm - N/A Fog Fog
11:39 PM 61.0 °F 59.0 °F 93% 29.94 in 2.0 mi SE 4.6 mph - N/A   Mostly Cloudy
11:48 PM 60.8 °F 57.2 °F 88% 29.94 in 5.0 mi SE 4.6 mph - N/A   Scattered Clouds
11:53 PM 60.1 °F 57.9 °F 93% 29.91 in 6.0 mi SE 4.6 mph - N/A   Partly Cloudy